User: anonymous   Login
Location: Gollag?dem
(16.8053°N, 80.8024°E)
Time: 17:56:30
(UTC+00:00)
Language:

SAR-Lupe-4 - Orbit

View from above orbital plane
View from above orbital plane
View from above satellite
View from above satellite

Ground track
Ground track

The orbit data is extracted from the following two-line orbital elements,

1 32750U 08014A   20283.77677849 0.00000150  00000-0  55856-5 0    03
2 32750  98.2026  99.6168 0001999  74.4449 285.5549 15.27503250    03
Epoch (UTC): 09 October 2020 18:38:33
Eccentricity: 0.0001999
inclination: 98.2026°
perigee height: 482 km
apogee height: 484 km
right ascension of ascending node: 99.6168°
argument of perigee: 74.4449°
revolutions per day: 15.27503250
mean anomaly at epoch: 285.5549°
orbit number at epoch: 0

The dashed part of the orbit path shows where the satellite is in the earth's shadow,  

DLR